Regional Weather Roundup
Issued by NWS Albany, NY

Home | Current Version | Previous Version | Text Only | Print | Product List | Glossary On
Versions: 1 2 3 4 5 6 7 8 9 10 11 12 13 14 15 16 17 18 19 20 21 22 23 24 25 26 27 28 29 30 31 32 33 34 35 36 37 38 39 40 41 42 43 44 45 46 47 48 49 50
000
ASUS41 KALY 280710
RWRALY

NEW YORK STATE HOURLY WEATHER ROUNDUP
NATIONAL WEATHER SERVICE ALBANY NY
200 AM EST WED JAN 28 2015

NOTE: "FAIR" INDICATES FEW OR NO CLOUDS BELOW 12,000 FEET WITH NO
SIGNIFICANT WEATHER AND/OR NO OBSTRUCTIONS TO VISIBILITY.

NYZ032-033-038>043-046>054-057>066-NYZ062>081-280800-
EAST


CITY           SKY/WX    TMP DP  RH WIND       PRES   REMARKS
ALBANY         FLURRIES  14  -1  51 NW10      29.89R WCI   1
GLENS FALLS    CLOUDY    15   4  61 N8        29.89R WCI   4
POUGHKEEPSIE   MOCLDY    12   4  70 CALM      29.86R
NEWBURGH       CLEAR     12   7  79 SW7       29.84S WCI   2
MONTGOMERY     PTCLDY    15  -2  46 VRB3      29.84R
WHITE PLAINS   PTCLDY    14   5  67 W9        29.82R WCI   2
ISLIP          CLOUDY    17   6  62 NW20G28   29.83R WCI   1
NEW YORK CITY  PTCLDY    18   7  62 NW13      29.88R WCI   5
CENTRAL PARK   CLEAR     18   3  52 NW10G20   29.89R WCI   6
$$

NYZ005>009-017-018-044>046-055-056-280800-
CENTRAL


CITY           SKY/WX    TMP DP  RH WIND       PRES   REMARKS
FULTON         MOCLDY    13   0  56 N7        30.05R WCI   3
SYRACUSE       MOCLDY     4  -2  76 W6        30.05R WCI  -7
ROME           MOCLDY     7  -4  60 NW9       30.02R WCI  -7
ELMIRA         MOCLDY     4   0  83 SW10      30.03R WCI -11
BINGHAMTON     CLEAR      8  -1  66 NW10      29.89R WCI  -6
MONTICELLO     PTCLDY     9  -2  61 NW12G23   29.82R WCI  -6
$$

NYZ026>034-041>043-280800-
NORTH


CITY           SKY/WX    TMP DP  RH WIND       PRES   REMARKS
WATERTOWN        N/A    N/A N/A N/A MISG      30.07R
FORT DRUM      NOT AVBL
MASSENA        MOCLDY     8  -7  50 N6        30.06S WCI  -2
SARANAC LAKE   MOCLDY     5  -1  76 N6        29.85R WCI  -6
PLATTSBURGH    LGT SNOW   8   3  80 N20       29.99R WCI -11
$$

NYZ001>004-010>016-019>021-280800-
WEST


CITY           SKY/WX    TMP DP  RH WIND       PRES   REMARKS
NIAGARA FALLS  PTCLDY     1  -3  83 W7        30.12S WCI -12
BUFFALO        PTCLDY     6   3  87 SW5       30.11R WCI  -3
DUNKIRK        PTCLDY    -3  -6  87 SW5       30.15R WCI -13
JAMESTOWN      MOCLDY     9   5  85 NW6       30.04R WCI  -1
WELLSVILLE     PTCLDY     8   0  69 NW12      29.97R WCI  -7
ROCHESTER      PTCLDY     2  -4  76 SW6       30.10R WCI  -9
PENN YAN       MOCLDY     8  -3  61 W6        30.04R WCI  -2
$$

             KEY
       WCI = WIND CHILL INDEX
       VSB = VISIBILITY
       HX  = HEAT INDEX
$$


USA.gov is the U.S. government's official web portal to all federal, state and local government web resources and services.